Wetbulb
66.84 65.19 65.05 63.96 54.84 52.18 49.63 52.79 57.59 58.54 58.32 61.26 60.44 58.75 58.01 58.90 56.48 55.13 68.85 68.89 71.62 72.26 70.69 71.43 73.13 73.07 72.95 72.73 72.46 72.09 71.77 71.15 70.23 69.55 68.56 67.90 67.18 66.45 66.21 65.80 65.56 65.66 65.71 65.86 65.92 66.27 66.72 66.75 66.74
62.26 61.28 63.60 59.88 51.41 48.26 49.55 54.57 56.60 58.76 61.62 61.81 60.44 60.42 59.12 57.34 61.17 64.12 65.97 69.39 71.09 73.04 71.93 70.41 73.24 73.14 73.46 73.19 72.84 72.33 72.10 71.57 70.92 70.26 69.42 68.76 68.21 67.68 67.31 67.23 66.97 66.64 67.18 66.93 66.98 67.23 67.47 67.74 68.04
63.51 62.30 58.70 54.70 52.72 48.86 50.81 57.35 58.61 59.80 62.45 60.06 59.08 61.30 59.56 58.75 62.61 65.19 69.54 70.29 70.27 73.35 72.80 71.02 73.54 73.24 73.64 73.51 73.15 72.83 72.43 72.03 71.32 70.25 70.07 69.95 69.46 69.22 69.10 69.00 68.71 68.82 68.98 68.86 68.84 68.68 68.47 68.57 68.67
63.12 60.21 59.06 53.53 51.99 54.57 55.19 59.29 61.00 60.33 61.05 61.37 60.44 57.69 61.32 64.18 63.40 65.56 68.76 68.84 68.19 71.48 72.90 73.44 73.27 73.34 73.69 73.74 73.40 73.17 72.92 72.40 72.10 71.29 71.17 71.01 70.66 70.80 70.96 70.10 69.30 69.31 69.59 69.94 69.94 69.53 69.29 69.13 69.94
62.53 59.35 52.90 50.92 51.61 54.88 56.63 58.96 60.68 59.95 59.89 59.88 60.26 57.38 59.50 63.25 65.56 66.01 68.53 68.92 68.14 68.19 72.31 73.60 73.24 73.64 73.92 74.02 73.74 73.32 73.02 72.60 72.21 72.15 71.95 71.49 71.35 71.65 71.59 71.11 70.53 70.73 70.73 70.57 70.45 70.19 70.24 70.32 70.33
57.01 57.49 50.62 49.84 52.51 55.42 57.52 59.00 60.14 59.99 60.03 59.95 59.36 58.78 59.60 64.23 64.86 65.94 67.62 69.39 68.73 69.24 71.52 74.20 73.44 73.60 73.60 73.72 73.84 73.32 73.12 72.77 72.72 72.70 72.50 72.08 72.15 71.96 71.73 71.59 71.09 71.17 70.74 70.13 69.78 70.38 70.08 69.50 69.40
55.63 53.53 50.76 51.87 52.76 54.41 56.35 59.89 58.31 58.11 58.01 58.23 60.71 57.28 60.57 63.10 65.66 68.51 68.81 69.70 70.44 70.36 70.71 74.40 73.46 73.38 73.92 73.69 73.49 73.49 73.16 73.14 73.11 72.79 72.80 72.80 72.50 72.13 71.59 71.61 71.22 70.81 70.59 70.07 69.42 69.26 69.15 68.87 68.72
57.59 55.26 51.44 53.14 52.93 53.18 57.31 57.69 59.10 58.20 57.65 62.46 62.27 57.49 58.63 64.84 67.20 67.07 66.41 66.73 68.43 69.42 69.02 73.96 73.73 72.87 72.45 72.67 73.81 73.69 73.61 73.30 73.28 73.15 73.10 72.84 72.23 71.79 71.91 71.39 71.15 70.67 70.35 69.00 68.01 67.76 68.15 69.04 69.26
59.05 51.12 49.46 51.53 52.52 54.33 58.46 56.66 59.35 60.82 59.10 60.52 60.85 60.66 62.38 63.92 65.12 64.68 64.94 65.03 65.71 67.30 69.35 70.21 73.90 73.43 72.49 71.35 72.68 73.84 73.52 73.36 73.33 73.19 72.79 72.20 69.64 68.02 69.57 70.67 70.81 70.87 69.78 68.41 67.98 67.62 67.60 67.99 68.31
54.89 50.97 51.22 55.32 56.28 56.11 57.59 57.62 58.21 58.43 58.76 58.91 59.98 62.05 63.27 63.53 63.79 63.57 63.49 62.94 64.07 65.17 67.66 69.10 69.80 72.36 72.72 71.73 71.47 72.48 72.16 71.84 71.69 70.83 70.64 70.53 69.57 70.33 69.63 70.40 71.76 69.39 69.42 68.57 68.25 67.55 67.21 66.60 64.71
56.37 52.31 54.92 56.32 58.18 58.51 57.43 57.49 59.36 57.73 56.44 58.71 58.53 60.23 62.00 63.05 63.75 63.60 62.33 62.70 63.47 65.18 65.97 69.06 70.10 72.33 71.93 70.87 70.97 72.47 71.34 70.39 70.26 70.45 70.56 70.61 70.97 70.59 70.35 68.41 67.75 67.41 68.60 66.89 67.16 66.13 65.15 64.85 63.96
54.05 57.15 57.12 58.02 59.04 58.64 57.40 58.99 58.06 58.74 58.80 61.61 62.18 62.52 61.99 62.44 62.87 62.73 62.51 62.31 62.64 63.56 66.51 69.16 70.80 71.89 71.41 71.19 71.51 72.24 71.64 71.09 70.20 70.74 71.81 71.86 70.72 70.21 69.36 68.63 68.54 68.00 67.05 66.95 67.29 65.29 65.80 65.56 65.85
53.59 54.53 57.01 58.77 59.07 58.66 59.23 57.96 58.23 58.56 61.24 62.10 62.60 62.67 62.44 62.61 63.32 63.82 63.83 64.08 65.05 64.55 65.38 67.98 71.81 71.37 72.68 72.95 71.65 71.19 71.57 71.51 71.19 71.17 71.65 70.14 68.97 69.26 70.57 69.38 68.79 68.16 67.95 66.76 66.05 66.20 66.07 65.59 64.72
55.88 55.33 55.71 57.08 57.36 57.97 56.48 56.96 57.85 59.35 61.75 61.21 61.90 61.92 62.22 62.40 62.93 62.67 64.43 66.10 67.55 68.51 69.32 69.59 71.85 72.24 73.11 71.33 73.77 73.46 73.93 72.44 71.69 70.71 70.28 70.34 69.87 70.37 69.28 69.75 68.47 68.41 69.00 66.95 66.71 65.77 65.60 64.53 64.39
55.38 53.36 55.32 55.92 56.34 56.32 57.80 54.93 55.32 59.24 60.27 59.40 60.62 61.80 62.04 62.58 62.71 62.07 65.14 67.17 69.27 68.60 70.80 70.45 73.42 73.48 72.55 72.76 72.14 75.05 73.41 71.75 70.04 69.91 71.24 71.20 70.63 70.33 69.94 68.54 68.50 68.88 68.33 67.81 66.79 66.33 66.10 65.73 64.49
51.66 52.55 49.59 54.43 56.05 56.76 56.11 50.68 56.67 59.10 58.65 58.61 59.96 60.75 61.52 62.15 62.15 64.93 65.13 66.40 69.26 70.39 69.34 72.31 71.28 73.28 73.26 73.27 73.09 72.87 72.26 70.56 71.30 70.63 70.70 70.65 70.94 70.53 69.89 67.78 67.48 68.79 68.40 67.07 66.73 65.82 65.15 64.79 64.75
49.74 46.84 48.04 50.42 55.27 54.72 54.97 52.17 56.84 59.10 58.56 58.43 59.40 59.32 60.00 60.68 62.76 65.67 66.94 66.41 69.02 71.53 72.11 73.09 73.15 71.99 72.58 73.98 73.55 73.30 72.49 70.04 69.54 70.66 70.37 70.78 70.22 70.03 69.05 67.93 68.54 68.42 67.63 66.64 65.99 65.74 64.85 63.86 63.23
44.38 45.36 47.71 48.26 52.79 54.05 52.87 52.67 56.11 58.04 57.91 58.14 58.53 59.05 59.25 60.17 61.72 64.62 65.95 67.50 72.84 71.46 72.37 73.85 72.70 73.17 72.69 72.75 73.14 71.17 70.23 70.29 71.24 70.39 69.81 70.97 70.18 69.36 68.88 68.55 68.07 67.67 66.62 65.70 65.70 64.38 64.85 63.96 63.58
48.13 47.82 46.66 50.61 52.96 51.82 51.96 52.36 54.71 57.29 57.60 57.33 58.26 58.15 59.11 60.37 62.51 64.46 65.44 71.03 69.45 70.35 71.80 72.56 71.85 73.15 71.66 70.82 69.00 68.22 67.00 68.54 68.62 69.77 70.58 69.90 69.77 69.01 68.57 68.44 67.30 66.80 65.75 65.29 65.33 64.21 63.32 62.80 63.52
46.50 46.18 46.61 50.15 51.56 51.37 51.68 51.93 55.47 56.89 57.01 57.80 57.97 58.36 59.04 60.37 62.18 64.09 67.23 68.84 69.09 69.94 71.10 71.04 71.02 72.56 70.90 70.34 69.13 68.54 68.13 67.88 68.04 69.76 69.93 69.89 68.72 69.28 68.18 67.56 66.50 66.37 65.41 65.02 64.64 64.19 62.76 62.67 63.24
45.88 45.16 46.46 46.44 49.33 51.33 50.99 49.87 52.98 55.70 57.40 58.24 58.74 59.39 60.21 59.95 59.09 61.56 66.41 67.66 68.09 68.20 69.04 69.49 70.60 70.77 70.56 71.06 69.63 71.82 71.37 69.75 68.57 68.42 67.97 68.79 68.62 68.60 67.51 66.32 66.06 66.13 66.40 64.96 64.77 64.37 62.87 60.69 62.16
43.32 47.73 47.00 46.91 46.15 43.64 50.42 42.73 50.95 53.66 54.95 56.91 57.84 58.60 58.83 59.29 60.56 63.54 65.96 66.67 67.53 67.57 68.84 69.39 70.07 69.84 70.34 71.88 70.42 70.16 67.68 65.85 68.40 68.92 68.29 68.40 68.77 67.39 67.12 66.75 66.55 66.63 65.71 65.49 65.09 65.26 63.74 62.65 60.17
44.86 48.05 47.48 46.97 46.04 46.55 46.38 44.38 47.68 52.79 52.13 54.44 56.68 58.03 59.00 59.68 62.12 62.66 66.03 66.65 67.23 68.01 68.15 69.05 69.64 69.21 70.62 70.93 70.59 69.33 68.99 68.49 68.48 68.58 67.64 68.66 68.31 67.65 66.98 66.35 66.73 66.11 66.69 64.98 64.53 64.34 63.67 64.18 62.73
49.08 46.69 46.52 47.08 46.41 40.94 45.94 44.91 45.06 48.70 51.65 53.33 55.88 56.80 58.07 59.87 61.30 65.04 66.44 66.84 66.72 67.46 67.77 68.60 68.43 68.84 69.68 70.05 70.83 70.46 68.97 68.65 67.68 67.58 67.13 67.22 66.64 67.53 66.10 66.73 66.68 67.05 65.70 64.84 64.64 64.93 64.34 62.98 63.58
46.28 45.73 39.26 37.97 38.73 38.53 46.95 44.73 46.81 51.75 54.01 54.87 55.43 57.18 58.82 60.90 61.66 64.54 64.97 65.06 65.68 66.18 67.16 67.63 67.74 67.75 68.64 69.08 69.28 68.80 69.28 69.23 68.53 67.92 67.37 66.87 66.51 66.02 66.36 66.70 66.24 67.07 65.79 65.39 65.52 64.78 63.85 63.50 62.95
44.48 45.42 40.15 33.41 35.95 39.68 45.61 41.82 46.29 53.45 55.71 56.76 57.19 58.60 59.91 61.18 63.96 64.41 64.75 65.08 65.25 66.18 66.69 66.58 67.22 67.18 67.90 67.94 68.09 68.85 69.40 67.44 68.37 68.57 66.92 67.75 67.87 67.28 67.81 67.30 67.12 67.01 65.89 65.70 65.23 64.62 64.20 64.34 63.51
44.35 41.84 47.48 43.01 44.08 40.77 44.08 47.79 51.39 53.91 54.98 56.05 56.84 58.59 60.07 62.96 63.63 63.84 64.75 65.17 65.36 65.78 66.37 66.84 67.15 67.14 67.14 67.51 67.94 68.06 68.62 68.92 68.33 67.95 68.14 68.07 68.28 68.04 67.01 67.28 66.53 66.44 65.27 65.44 65.08 64.69 63.83 64.25 64.34
45.63 47.97 41.41 43.88 35.79 35.84 41.81 44.66 46.49 52.29 54.01 55.49 56.38 57.89 59.80 63.20 63.41 63.92 64.59 65.08 65.73 66.11 67.07 67.77 67.69 66.79 66.70 67.10 67.05 67.18 67.29 66.81 67.81 67.99 66.81 68.30 67.71 67.35 66.71 66.84 66.27 65.33 65.28 65.56 65.44 65.46 65.35 63.87 64.65
43.76 42.57 44.78 46.24 43.96 38.80 38.07 43.01 55.06 53.91 54.63 55.41 57.10 57.69 59.95 62.75 62.99 63.67 64.35 65.36 65.88 66.22 66.46 66.91 66.85 65.84 66.11 66.31 67.37 67.21 67.24 67.07 67.26 67.28 67.36 67.53 67.32 67.19 65.85 65.61 65.32 64.25 63.54 65.10 64.59 64.99 64.27 63.15 61.96
46.94 44.48 45.35 41.78 40.84 43.85 43.60 44.27 55.80 55.73 55.33 57.12 57.20 57.91 61.61 63.14 63.38 63.96 64.30 64.70 65.06 65.47 65.69 66.16 65.48 65.08 65.72 66.03 66.61 65.82 65.25 66.78 67.23 66.08 66.80 66.32 66.20 66.19 66.06 65.53 64.69 64.17 64.27 64.50 64.31 63.85 63.75 62.82 61.25
MSLP
1010.35 1010.28 1009.87 1008.46 1008.12 1006.00 1003.48 1001.09 998.71 998.53 998.06 998.00 998.43 998.84 999.27 999.41 999.50 1000.89 1001.86 1002.18 1003.39 1005.26 1006.48 1007.41 1007.82 1008.30 1008.82 1009.26 1009.66 1010.07 1010.59 1011.10 1011.47 1011.64 1011.85 1012.24 1012.48 1012.67 1012.90 1013.15 1013.24 1013.32 1013.49 1013.52 1013.49 1013.63 1013.71 1013.77 1013.79
1010.07 1009.93 1009.60 1007.95 1007.00 1004.64 1002.35 1000.40 999.88 998.87 998.23 998.66 998.71 998.78 999.05 999.33 999.84 1000.86 1001.68 1002.23 1003.15 1004.96 1006.13 1006.88 1007.62 1008.15 1008.58 1008.96 1009.47 1009.94 1010.44 1010.98 1011.27 1011.59 1011.75 1012.06 1012.28 1012.49 1012.70 1012.96 1013.02 1013.07 1013.25 1013.29 1013.35 1013.44 1013.57 1013.68 1013.79
1010.11 1009.37 1008.64 1006.35 1005.11 1003.02 1000.75 999.55 1000.48 1000.50 1000.35 998.70 998.46 998.63 999.09 999.74 1000.33 1001.13 1001.96 1002.42 1003.29 1004.88 1005.98 1006.58 1007.41 1007.94 1008.43 1008.75 1009.15 1009.69 1010.15 1010.64 1010.99 1011.26 1011.62 1011.89 1012.03 1012.24 1012.50 1012.72 1012.82 1012.99 1013.05 1013.11 1013.15 1013.22 1013.35 1013.51 1013.62
1009.42 1008.84 1007.96 1005.78 1003.76 1001.75 1000.31 999.45 999.00 999.71 998.39 998.35 998.78 998.90 999.09 999.77 1000.49 1001.28 1002.04 1002.50 1003.15 1004.41 1005.62 1006.48 1007.19 1007.67 1008.15 1008.68 1008.98 1009.45 1009.93 1010.37 1010.80 1011.00 1011.25 1011.58 1011.74 1012.02 1012.26 1012.44 1012.56 1012.66 1012.75 1012.82 1012.89 1012.94 1013.04 1013.19 1013.28
1008.80 1007.28 1006.16 1004.41 1002.77 1000.99 999.39 998.48 998.53 998.70 998.37 998.11 998.24 999.02 999.78 1000.40 1000.88 1001.34 1002.02 1002.37 1002.79 1003.59 1004.56 1006.16 1007.09 1007.71 1008.09 1008.41 1008.78 1009.24 1009.67 1010.08 1010.45 1010.89 1011.08 1011.30 1011.49 1011.75 1011.98 1012.17 1012.31 1012.35 1012.43 1012.56 1012.62 1012.76 1012.80 1012.93 1013.06
1007.95 1006.79 1005.41 1003.44 1001.70 999.91 998.60 997.74 997.91 997.90 998.09 998.26 998.24 999.22 999.79 1000.51 1000.90 1001.40 1001.67 1002.30 1002.54 1002.99 1004.06 1005.40 1006.59 1007.29 1007.82 1008.30 1008.65 1008.90 1009.33 1009.71 1010.03 1010.50 1010.74 1010.99 1011.21 1011.54 1011.67 1011.78 1011.90 1011.99 1012.14 1012.27 1012.37 1012.45 1012.59 1012.76 1012.91
1007.01 1005.97 1004.50 1002.95 1001.09 999.24 998.22 998.26 998.15 997.95 998.21 998.31 998.26 999.13 999.95 1000.36 1001.10 1001.39 1001.62 1001.83 1002.23 1002.76 1003.76 1005.27 1006.17 1006.93 1007.47 1007.90 1008.35 1008.63 1008.93 1009.34 1009.70 1010.18 1010.40 1010.63 1010.83 1011.22 1011.39 1011.41 1011.48 1011.60 1011.81 1012.00 1012.20 1012.32 1012.38 1012.49 1012.66
1006.66 1005.91 1004.30 1002.78 1001.15 999.63 998.62 998.12 997.94 998.33 998.42 998.92 999.37 999.61 999.92 1000.30 1000.60 1000.88 1000.90 1000.80 1001.25 1001.76 1002.52 1004.19 1005.44 1006.31 1007.09 1007.54 1007.80 1008.18 1008.48 1008.69 1009.08 1009.65 1010.00 1010.23 1010.49 1010.76 1010.88 1010.89 1010.97 1011.14 1011.37 1011.68 1011.91 1012.11 1012.16 1012.24 1012.35
1006.39 1005.67 1004.08 1002.76 1001.46 1000.09 999.11 998.53 998.30 998.57 998.66 998.88 999.36 999.59 999.73 999.80 999.79 1000.11 1000.59 1000.46 1000.46 1000.71 1001.42 1002.59 1003.87 1005.04 1006.04 1006.80 1007.41 1007.84 1008.12 1008.10 1008.47 1009.05 1009.39 1009.66 1009.84 1009.95 1009.96 1010.06 1010.37 1010.64 1011.04 1011.40 1011.59 1011.74 1011.85 1011.92 1012.02
1005.77 1004.55 1003.48 1002.65 1001.57 1000.32 999.34 998.60 998.25 998.79 999.08 999.52 999.69 999.49 999.43 999.26 999.69 1000.25 1000.22 1000.18 1000.22 1000.14 1000.41 1000.94 1001.96 1003.16 1004.70 1005.84 1006.55 1007.43 1007.70 1007.91 1007.88 1008.25 1008.60 1008.93 1009.07 1009.20 1009.17 1009.30 1009.68 1010.33 1010.62 1010.92 1011.14 1011.26 1011.40 1011.61 1011.57
1004.73 1003.27 1003.03 1001.94 1001.27 1000.37 999.59 998.85 998.43 998.31 998.94 999.09 999.01 999.06 999.04 999.01 999.54 999.65 999.95 999.99 999.90 999.88 999.83 999.95 1000.98 1001.86 1002.86 1004.31 1005.65 1006.56 1006.93 1007.32 1007.38 1007.45 1007.77 1007.93 1008.25 1008.47 1008.62 1008.88 1009.35 1009.88 1010.26 1010.45 1010.47 1010.82 1011.08 1010.87 1010.86
1003.57 1002.86 1002.40 1001.57 1000.98 1000.26 999.55 999.01 998.43 998.19 998.40 999.37 998.84 998.69 998.86 999.21 999.48 999.68 999.62 999.64 999.58 999.71 999.69 999.61 1000.38 1001.25 1001.97 1003.08 1004.05 1005.59 1006.13 1006.64 1006.81 1006.61 1006.88 1007.32 1007.76 1008.28 1008.59 1008.68 1008.83 1009.35 1009.58 1009.82 1009.94 1010.15 1010.13 1010.31 1010.31
1001.93 1001.96 1001.66 1001.00 1000.35 999.90 999.61 998.85 998.52 998.13 998.26 998.33 998.41 998.32 998.34 998.53 998.99 999.25 999.17 999.08 999.19 999.43 999.41 999.38 1000.10 1000.68 1001.45 1002.32 1003.15 1004.19 1005.16 1005.77 1006.07 1006.23 1006.58 1007.10 1007.68 1007.94 1008.04 1008.18 1008.42 1008.67 1009.00 1009.35 1009.55 1009.63 1009.92 1010.22 1010.07
1001.78 1001.33 1000.59 1000.14 999.59 999.16 998.95 998.40 998.58 998.25 998.14 997.80 997.84 997.81 998.04 997.93 998.13 998.68 998.56 998.73 998.94 999.08 999.21 999.33 999.93 1000.43 1001.16 1001.85 1002.73 1003.60 1004.31 1005.01 1005.52 1005.90 1006.08 1006.47 1007.04 1007.63 1007.83 1007.87 1008.23 1008.51 1008.72 1009.09 1009.20 1009.36 1009.67 1009.86 1009.90
1001.58 1000.82 999.88 998.96 999.14 998.57 999.09 997.26 997.26 997.78 997.73 997.33 997.50 997.17 997.28 997.37 997.42 997.68 997.93 998.32 998.53 998.63 998.79 998.95 999.58 1000.40 1001.15 1001.63 1002.51 1003.46 1004.02 1004.68 1005.33 1005.73 1005.92 1006.25 1006.74 1007.35 1007.69 1007.74 1007.89 1008.26 1008.53 1008.89 1009.20 1009.36 1009.48 1009.74 1009.80
1001.42 1000.79 998.75 998.64 998.97 998.03 998.90 995.73 996.91 997.21 997.12 996.87 996.88 996.66 996.58 996.59 996.81 997.01 997.45 997.88 997.82 997.96 998.32 998.56 998.91 1000.46 1001.24 1001.87 1002.72 1003.43 1003.98 1004.59 1005.16 1005.55 1005.75 1006.00 1006.47 1006.89 1007.34 1007.55 1007.68 1007.92 1008.37 1008.84 1009.04 1009.12 1009.32 1009.55 1009.67
1000.53 999.24 998.52 998.11 998.45 998.11 997.56 995.80 996.26 996.61 996.39 996.02 996.41 996.52 996.32 996.28 996.25 996.62 997.16 997.23 997.13 997.42 997.81 998.26 998.88 999.99 1000.97 1001.92 1002.83 1003.52 1004.03 1004.64 1005.15 1005.34 1005.64 1005.66 1006.11 1006.56 1007.00 1007.27 1007.56 1007.84 1008.30 1008.62 1008.75 1008.83 1009.08 1009.30 1009.46
999.49 998.93 997.58 997.85 997.60 997.02 996.40 995.72 995.37 995.58 995.30 995.07 995.31 995.54 995.81 995.75 995.75 996.23 996.66 996.45 996.60 997.29 997.84 998.33 998.94 999.98 1001.01 1001.86 1002.86 1003.55 1004.18 1004.53 1004.91 1005.16 1005.37 1005.52 1005.73 1006.08 1006.69 1007.01 1007.39 1007.77 1008.04 1008.27 1008.48 1008.66 1008.69 1008.91 1009.16
999.46 998.38 997.65 997.18 996.89 996.52 995.96 995.61 994.79 994.78 994.43 994.44 994.67 995.01 995.18 995.10 995.19 995.54 995.93 995.92 996.81 997.61 998.28 998.88 999.32 1000.06 1000.94 1001.90 1002.87 1003.55 1004.01 1004.54 1004.82 1004.89 1005.00 1005.29 1005.67 1006.03 1006.47 1006.81 1007.16 1007.50 1007.71 1007.89 1008.13 1008.28 1008.55 1008.75 1008.88
998.94 997.96 997.17 996.82 996.43 995.97 995.23 994.61 994.03 994.24 993.84 993.64 993.80 994.16 994.33 994.50 994.80 994.99 995.22 996.24 997.10 998.05 998.70 999.32 999.87 1000.48 1001.24 1002.00 1002.85 1003.31 1003.73 1003.95 1004.11 1004.28 1004.58 1005.02 1005.54 1005.95 1006.28 1006.48 1006.88 1007.15 1007.28 1007.57 1007.80 1008.07 1008.34 1008.56 1008.74
997.97 997.46 997.22 996.63 996.93 995.60 995.36 994.35 993.80 993.33 993.11 993.21 993.07 993.18 993.58 994.03 994.36 994.67 995.09 996.48 997.44 998.29 999.06 999.61 1000.17 1000.91 1001.51 1002.07 1002.78 1002.99 1003.32 1003.72 1003.93 1004.17 1004.54 1004.94 1005.40 1005.75 1005.95 1006.24 1006.67 1006.77 1007.01 1007.34 1007.52 1007.71 1007.98 1008.12 1008.48
996.99 997.14 997.34 996.68 996.72 995.01 995.83 994.04 993.17 993.30 992.81 992.61 992.45 992.52 992.77 993.19 993.40 993.79 994.78 996.43 997.40 998.33 999.20 999.88 1000.58 1001.26 1001.77 1002.12 1002.71 1003.10 1003.56 1003.71 1003.91 1004.00 1004.36 1004.84 1005.20 1005.48 1005.71 1006.07 1006.24 1006.53 1006.76 1006.96 1007.09 1007.25 1007.54 1007.90 1007.93
995.82 998.07 996.68 996.37 995.97 995.74 995.34 994.85 990.63 992.87 991.92 991.61 991.62 991.64 991.89 992.14 992.43 993.08 994.63 996.17 997.28 998.36 999.28 1000.13 1000.98 1001.59 1001.90 1002.29 1002.73 1003.32 1003.58 1003.45 1003.60 1003.87 1004.56 1004.90 1005.28 1005.42 1005.49 1005.75 1005.94 1006.26 1006.51 1006.60 1006.85 1007.07 1007.36 1007.56 1007.66
996.97 997.12 996.82 996.32 995.52 994.54 993.58 994.66 990.32 992.03 991.36 991.02 991.00 990.86 990.85 991.36 991.77 992.93 994.68 996.08 997.39 998.49 999.52 1000.44 1001.23 1001.74 1002.08 1002.63 1002.85 1003.37 1003.46 1003.60 1003.80 1004.06 1004.46 1004.76 1005.14 1005.22 1005.46 1005.64 1005.84 1006.09 1006.32 1006.51 1006.55 1006.81 1007.06 1007.22 1007.36
996.59 996.22 995.80 995.56 994.42 992.70 993.63 993.20 990.45 991.00 990.47 990.32 990.23 990.13 990.25 990.64 991.27 993.05 994.96 996.18 997.57 998.62 999.72 1000.57 1001.28 1001.78 1002.38 1002.75 1003.09 1003.42 1003.62 1003.87 1003.98 1004.25 1004.46 1004.70 1004.97 1005.08 1005.33 1005.54 1005.77 1005.88 1006.08 1006.27 1006.37 1006.71 1006.89 1007.05 1007.13
995.55 995.03 994.18 993.01 992.50 992.49 993.54 991.17 989.80 989.60 989.41 989.44 989.43 989.63 989.30 989.98 991.37 993.26 994.97 996.19 997.57 998.73 999.75 1000.42 1001.18 1001.84 1002.40 1002.77 1003.10 1003.38 1003.60 1003.88 1004.00 1004.21 1004.42 1004.58 1004.80 1004.94 1005.15 1005.37 1005.60 1005.82 1005.90 1006.06 1006.44 1006.69 1006.65 1006.83 1006.99
994.29 994.27 993.40 993.74 992.61 992.18 990.70 989.48 988.93 988.24 988.27 988.45 988.71 989.29 989.79 990.84 992.22 993.63 995.15 996.43 997.58 998.75 999.67 1000.33 1001.03 1001.71 1002.26 1002.62 1003.07 1003.42 1003.64 1003.84 1004.03 1004.27 1004.49 1004.40 1004.64 1004.80 1005.07 1005.27 1005.56 1005.71 1005.68 1005.95 1006.44 1006.75 1006.77 1006.90 1007.06
994.08 993.65 993.55 992.28 992.18 991.08 989.98 988.89 987.18 986.84 987.24 987.77 988.47 989.02 989.67 990.90 992.48 993.90 995.24 996.43 997.65 998.76 999.58 1000.28 1000.90 1001.55 1002.07 1002.52 1003.05 1003.29 1003.63 1003.84 1003.99 1004.18 1004.36 1004.49 1004.67 1004.71 1004.99 1005.22 1005.51 1005.65 1005.66 1006.03 1006.45 1006.68 1006.72 1006.96 1007.30
993.74 992.65 992.40 992.39 991.69 990.83 990.02 988.27 986.78 986.97 986.94 987.28 987.78 988.69 989.37 990.77 992.33 993.81 995.25 996.50 997.70 998.68 999.41 1000.09 1000.70 1001.38 1001.92 1002.46 1002.82 1003.25 1003.60 1003.85 1004.02 1004.24 1004.26 1004.46 1004.68 1004.68 1004.99 1005.24 1005.38 1005.53 1005.69 1006.06 1006.53 1006.72 1006.70 1007.18 1007.68
993.49 992.33 991.88 991.02 990.72 990.67 989.72 988.21 987.03 987.12 987.08 987.35 987.40 987.97 988.98 990.67 992.25 993.76 995.18 996.42 997.53 998.49 999.27 1000.02 1000.56 1001.14 1001.72 1002.17 1002.66 1003.09 1003.69 1003.77 1004.14 1004.20 1004.41 1004.40 1004.64 1004.71 1004.91 1005.08 1005.28 1005.46 1005.67 1005.99 1006.35 1006.64 1006.71 1007.21 1007.40
Wind_Speed
5 8 7 5 3 5 13 18 18 4 2 5 7 4 12 9 12 6 11 12 21 18 18 20 20 20 19 17 16 15 14 12 11 10 9 8 7 6 5 5 4 3 3 2 1 2 3 3 4
6 7 5 3 5 10 13 24 11 15 11 5 2 3 6 5 13 13 11 10 20 19 17 17 21 20 20 19 17 16 15 13 12 11 10 9 8 6 5 5 5 4 5 4 4 4 5 5 6
9 14 7 5 10 13 13 9 4 6 20 2 5 5 1 3 11 11 11 9 18 17 15 16 22 21 20 19 18 17 16 15 14 13 11 10 9 8 8 7 7 8 8 8 7 7 7 7 7
7 5 6 7 15 20 21 5 3 6 10 4 5 7 6 11 4 9 8 9 16 17 16 16 23 21 20 19 19 18 17 16 14 13 12 11 9 9 8 9 9 10 11 11 11 10 9 9 9
11 9 11 13 17 21 18 12 12 13 9 6 5 2 10 11 12 8 7 6 8 14 16 19 24 20 20 20 19 18 17 16 14 13 12 10 9 8 8 9 11 12 11 11 12 13 11 10 9
8 9 13 14 20 22 18 10 10 10 7 12 5 7 2 12 11 7 8 8 8 10 13 17 23 22 20 19 19 19 18 17 15 14 12 11 9 9 8 9 10 11 11 11 11 12 10 12 9
15 13 16 20 21 20 10 5 12 10 12 6 10 5 4 13 10 4 2 6 7 6 12 13 15 18 20 19 18 18 18 16 15 14 13 11 10 8 8 9 10 10 9 9 9 9 7 7 9
13 13 22 20 18 19 18 17 8 9 13 9 5 3 6 5 7 5 9 9 14 13 15 17 14 15 13 13 18 18 18 17 16 14 13 11 9 9 11 13 13 12 11 10 8 8 9 8 7
17 14 16 22 21 20 19 17 18 12 1 12 7 7 9 14 6 5 9 10 8 9 13 18 19 16 15 14 14 16 19 18 17 15 13 10 6 8 13 16 16 16 13 11 11 11 10 11 11
17 15 23 22 20 22 23 21 18 10 6 9 19 15 15 10 4 8 11 11 12 11 13 17 16 17 17 12 12 14 12 10 10 10 10 9 8 8 9 3 15 11 14 14 13 14 13 11 6
22 22 23 22 24 25 23 24 20 16 15 12 17 14 14 17 13 6 12 15 13 12 9 12 15 15 18 14 9 8 7 8 8 12 10 8 7 5 4 3 5 7 12 6 9 9 7 9 7
28 28 26 28 25 26 26 26 26 22 12 17 25 19 13 14 15 16 14 15 12 14 10 9 18 13 15 11 10 10 9 9 8 10 11 5 3 3 4 3 5 6 4 6 6 6 6 7 5
30 26 28 29 28 28 26 27 26 26 23 20 24 20 19 15 14 14 15 11 9 11 12 8 15 14 12 9 8 9 8 8 8 7 7 5 6 5 4 5 3 3 4 4 5 3 3 6 7
27 28 30 29 30 27 28 28 26 26 25 23 24 21 22 21 12 18 10 8 7 6 6 8 14 14 12 12 6 5 5 5 5 4 6 8 5 4 3 2 5 3 3 4 4 3 3 2 3
30 31 30 29 28 29 27 32 29 25 27 23 28 22 21 23 16 20 7 8 5 6 5 7 11 13 12 11 9 3 4 4 4 4 4 6 6 5 4 3 2 4 1 3 3 4 4 4 4
32 32 31 27 30 31 27 36 26 23 23 23 24 21 19 14 17 6 8 9 7 6 5 5 6 13 10 8 6 4 4 4 2 4 5 7 6 5 3 3 4 1 3 3 4 4 4 3 3
29 24 34 31 29 30 29 34 26 26 27 23 19 20 18 20 9 7 9 10 7 7 7 7 7 15 13 9 6 5 4 5 4 3 3 6 8 7 4 5 2 2 2 3 4 4 4 3 4
21 31 29 27 25 27 29 31 28 24 27 23 20 15 15 20 10 8 13 9 1 3 4 5 7 10 12 8 5 4 4 3 2 4 4 5 4 6 5 4 3 4 3 3 4 5 4 4 4
29 32 32 28 25 28 26 27 28 22 20 20 15 16 20 17 12 9 12 3 7 5 7 7 8 7 9 8 7 6 6 4 5 4 6 5 3 2 4 3 3 4 3 5 5 5 5 4 4
34 30 31 28 27 24 24 27 24 22 22 20 18 18 16 16 14 11 7 9 7 6 6 6 6 8 9 6 6 5 5 7 7 5 5 5 3 5 4 4 3 4 4 5 5 5 2 3 4
32 30 26 30 25 27 23 25 23 24 22 19 19 19 14 12 21 18 4 10 8 8 7 7 8 10 8 7 5 2 3 2 2 2 3 6 5 5 5 4 4 4 3 3 4 4 6 3 4
29 27 29 29 23 19 20 18 23 19 21 19 21 19 14 20 23 9 8 11 10 10 9 9 9 10 7 7 5 5 3 3 1 1 5 4 5 5 4 4 4 4 3 4 4 5 4 4 5
34 23 27 27 25 21 23 16 27 17 19 19 19 18 14 19 12 10 16 13 12 11 10 10 11 10 7 5 6 4 4 2 1 2 7 4 3 2 5 5 4 4 4 4 4 5 5 4 3
27 27 29 26 19 19 26 20 28 18 20 19 17 18 18 16 14 11 15 14 12 11 12 11 12 9 8 5 6 3 5 2 4 3 2 1 2 3 4 4 4 4 3 4 5 5 5 5 4
32 23 16 18 18 20 16 21 21 21 20 18 16 15 16 14 10 18 16 14 13 14 13 12 12 11 9 7 5 4 3 2 1 1 1 2 1 2 3 4 5 3 4 5 5 3 4 5 5
29 26 16 27 16 19 20 25 19 24 20 16 16 16 13 11 17 16 15 15 15 15 15 14 13 12 10 8 6 5 5 3 1 1 2 2 2 2 5 4 4 5 5 4 5 2 2 3 3
29 30 28 24 21 20 16 18 30 25 18 15 12 14 7 15 15 16 16 15 15 15 14 14 13 11 10 8 6 5 5 2 2 4 4 1 1 1 4 4 4 4 6 7 5 3 1 1 3
32 19 28 18 24 23 19 21 14 14 16 11 12 12 10 17 16 15 15 15 15 14 12 13 12 11 9 9 6 5 5 4 2 1 3 2 3 4 5 4 4 5 3 7 5 1 3 4 3
26 28 24 20 19 16 14 14 7 3 5 5 17 15 10 18 16 16 15 15 15 14 13 11 11 11 9 8 6 7 4 5 4 3 2 4 2 3 6 5 4 4 5 6 5 4 3 7 5
28 25 25 19 22 18 14 15 6 6 4 7 9 16 19 19 17 17 16 16 16 14 13 11 10 11 9 8 8 5 6 6 4 4 3 3 1 4 5 6 4 4 4 5 4 3 5 7 6
Wind_Direction
198 221 247 274 236 243 268 268 268 76 227 64 48 358 1 340 13 62 152 137 124 137 155 166 164 166 168 167 167 165 168 168 170 170 169 173 169 166 170 182 185 189 205 208 239 264 257 274 286
225 215 241 250 239 230 248 242 353 342 102 57 269 247 253 17 34 112 138 132 131 140 154 167 170 172 173 171 171 171 170 174 177 181 182 187 187 192 204 214 216 228 238 243 243 249 261 258 264
238 236 276 217 235 255 267 355 71 216 269 304 321 140 254 65 77 77 101 136 126 138 155 169 173 176 177 176 174 175 174 180 184 185 190 198 201 207 216 229 237 239 243 245 249 251 251 252 252
215 206 252 254 259 252 257 200 10 256 250 135 282 326 104 94 105 65 87 149 138 148 157 164 174 179 180 181 179 178 179 184 188 189 194 204 209 219 223 234 246 251 255 255 253 254 254 255 253
245 252 243 250 252 261 277 258 137 304 308 262 200 76 71 97 100 115 118 155 168 163 161 157 173 186 183 185 182 181 184 187 188 195 201 209 216 226 232 241 247 248 253 261 269 257 260 261 265
220 229 257 249 247 248 256 272 304 297 304 274 157 240 96 141 133 132 145 172 203 168 151 156 175 179 187 188 186 183 187 188 188 196 203 209 218 231 241 251 259 253 251 259 269 269 270 265 259
242 247 241 252 270 286 294 348 287 280 304 292 37 110 0 107 107 106 152 182 194 189 151 150 169 181 186 189 191 188 187 187 188 198 204 209 212 227 242 256 255 246 245 251 260 270 269 266 253
239 257 266 272 274 276 295 321 327 314 266 90 40 221 286 145 146 173 221 218 186 188 170 153 165 178 190 192 193 194 188 186 187 196 203 207 214 230 237 239 236 235 231 236 244 254 260 260 252
233 255 256 254 261 274 282 269 272 283 76 298 324 307 299 295 235 358 281 267 263 200 176 168 168 174 184 197 197 197 196 189 189 195 201 200 219 236 234 224 228 221 220 225 226 239 245 246 247
223 236 242 253 275 284 275 286 293 257 242 286 311 260 249 251 333 283 282 299 294 285 195 181 180 168 171 195 197 194 199 202 193 197 198 201 215 228 230 172 210 180 196 215 229 232 239 247 245
229 238 245 254 255 261 274 278 286 267 253 227 223 297 307 318 313 284 276 278 275 276 284 197 175 164 170 184 183 185 197 203 201 199 201 203 205 214 217 210 170 179 209 218 226 224 226 225 223
234 236 246 255 260 272 279 286 287 285 299 283 295 289 267 274 296 302 289 283 286 288 297 303 171 167 170 172 176 178 194 194 205 198 196 176 160 214 225 237 170 175 210 201 230 205 218 221 251
240 240 245 255 257 257 267 273 283 282 280 279 278 280 291 269 266 274 263 275 294 283 280 284 167 168 167 173 171 176 192 189 194 184 170 165 188 210 214 200 174 200 198 205 222 239 188 229 227
246 243 248 252 253 259 263 269 271 274 283 283 280 266 271 279 272 282 273 281 287 303 297 301 153 170 163 174 173 163 167 173 169 169 169 173 169 206 237 208 196 198 200 242 263 228 229 263 282
254 256 262 254 260 264 270 266 258 266 267 275 275 273 276 272 265 260 282 289 282 269 266 270 141 156 168 166 177 178 158 161 165 180 183 157 162 192 238 268 230 192 223 280 254 246 248 218 254
251 258 259 253 259 257 259 264 266 271 279 273 280 276 274 265 268 287 286 276 252 230 240 155 152 149 158 160 172 187 152 155 247 175 177 170 164 199 222 256 236 267 172 232 242 228 228 253 237
246 250 251 250 248 261 255 265 265 253 254 255 264 276 276 278 267 280 268 273 244 199 210 162 161 158 156 151 162 176 168 165 204 213 189 175 178 196 182 226 242 253 239 241 240 239 212 213 238
221 234 243 259 253 253 247 256 259 255 256 256 245 264 265 269 259 263 272 273 55 76 68 139 131 129 148 149 152 161 203 165 222 194 203 185 176 198 184 223 215 203 226 247 227 221 218 205 211
236 237 246 252 249 247 252 257 267 274 264 257 270 265 259 255 247 246 268 173 109 88 86 103 120 130 140 146 167 181 196 183 205 211 192 174 178 116 181 222 209 232 220 229 220 227 222 210 197
245 248 250 260 260 260 263 260 252 255 261 261 242 247 265 283 298 262 264 114 120 118 128 128 142 140 143 145 177 185 192 191 198 187 170 137 150 167 213 225 234 240 211 213 221 209 193 209 182
236 236 247 259 266 266 271 269 272 270 267 269 267 263 255 271 273 271 195 133 135 136 143 152 144 137 150 155 192 153 119 91 114 148 174 168 170 188 198 213 208 217 203 223 223 201 198 201 195
243 234 243 250 252 258 258 269 256 262 266 260 266 264 248 247 246 237 155 138 141 139 142 136 136 147 174 171 160 144 178 191 186 134 97 112 171 179 176 211 209 211 201 197 217 201 197 194 211
245 244 251 248 250 259 254 260 268 271 265 254 254 252 252 248 257 248 129 139 137 135 139 139 141 161 174 150 151 160 255 227 154 138 141 163 119 219 221 187 209 178 217 237 212 219 173 197 205
245 239 249 258 255 245 242 244 264 256 261 265 263 257 243 254 232 139 123 131 133 139 140 142 151 175 134 177 136 199 171 15 44 56 19 132 207 214 220 234 195 214 216 216 216 149 203 213 220
239 230 233 232 234 242 241 240 255 265 262 265 276 278 259 254 211 130 137 142 141 145 143 148 164 144 160 170 146 162 148 140 40 305 354 333 178 218 197 220 182 180 198 236 122 158 197 198 198
225 233 223 221 222 240 240 251 261 252 259 250 246 248 264 215 120 131 143 139 152 148 152 159 160 155 166 159 158 147 146 192 175 42 346 74 88 225 157 177 173 199 207 199 121 214 206 194 214
232 224 236 246 236 245 261 247 234 244 243 231 210 242 158 124 129 138 147 147 149 151 160 155 160 158 166 155 135 153 158 195 52 53 57 23 357 124 160 158 181 175 226 125 142 177 139 142 107
239 226 224 223 231 246 238 241 257 184 218 217 207 220 209 137 142 148 146 152 147 153 157 156 156 156 159 137 158 160 133 129 124 149 144 163 216 165 130 153 165 190 218 138 139 167 181 130 107
227 225 220 243 222 239 249 267 70 84 132 218 193 203 195 142 149 149 150 147 148 153 156 154 157 156 154 145 141 141 152 144 128 193 129 106 159 150 141 154 174 181 189 133 139 207 192 109 107
238 224 230 220 209 228 246 236 82 149 208 233 257 193 148 145 151 150 152 153 152 160 150 158 154 157 154 167 131 137 144 116 115 121 119 123 79 148 159 144 141 137 136 140 151 212 121 127 156